www.pogodaiklimat.ru

Погода и климат >> Архив погоды >> Швеция >> Каттерьяк аэропорт


ПОГОДА в Каттерьяк аэропорту

  • Прогноз погоды в Каттерьяк аэропорту
  • Монитор погоды в Каттерьяк аэропорту

АРХИВ ПОГОДЫ в Каттерьяк аэропорту

Время (UTC), дата Ветер
(напр.,м/с)
 
Видим.   Явления Облачность Т
(С)
Тd
(С)
f
(%)
Тe
(С)
Тes
(С)
Комфортность P
(гПа)
Po
(гПа)
Тmin
(С)
Tmax
(С)
R
(мм)
R24
(мм)
S
(см)
13 14.07 СЗ 3
{7}
45 км н/о +10.5 +5.5 71 +9 +9 1014.3 953.5
14 14.07 СЗ 4
{6}
45 км н/о +11.4 +5.8 68 +9 +9 1014.0 953.4
15 14.07 СЗ 3
{6}
40 км н/о +11.0 +5.4 68 +9 +9 1014.0 953.3
16 14.07 СЗ 3
{5}
50 км н/о +10.7 +5.1 68 +9 +9 1014.0 953.3
17 14.07 З 2
{5}
50 км н/о +10.3 +5.3 71 +9 +9 1014.0 953.2
18 14.07 З 2
{4}
50 км н/о +10.0 +5.2 72 +9 +9 1013.8 952.9 +7.7 +12.0
19 14.07 З 2
{4}
50 км н/о +9.7 +5.3 74 +8 +8 1013.6 952.7
20 14.07 СЗ 2
{5}
40 км н/о +9.3 +5.2 76 +8 +8 1013.6 952.6
21 14.07 В 1
{4}
50 км н/о +8.8 +5.5 80 +8 +8 1013.8 952.6
22 14.07 С 2
{3}
50 км н/о +8.5 +5.6 82 +7 +7 1013.8 952.6
23 14.07 С 2
{3}
50 км н/о +8.3 +5.8 84 +6 +6 1013.7 952.4
00 15.07 СЗ 2
{3}
50 км н/о +8.1 +5.9 86 +6 +6 1013.6 952.3
01 15.07 СЗ 2
{3}
50 км н/о +7.8 +5.9 88 +6 +6 1013.5 952.1
02 15.07 СЗ 2
{3}
50 км н/о +7.7 +5.9 88 +6 +6 1013.4 952.0
03 15.07 СЗ 2
{3}
35 км н/о +7.6 +6.1 90 +5 +5 1013.4 952.0
04 15.07 В 1
{3}
6000 м дымка н/о +7.2 +6.2 93 +6 +6 1013.6 952.1
05 15.07 В 1
{2}
16 км н/о +7.4 +6.0 91 +6 +6 1013.5 952.1
06 15.07 С 1
{3}
40 км {дымка} н/о +7.8 +5.8 87 +7 +7 1013.4 952.0 +7.1 +10.0
07 15.07 С 2
{3}
30 км н/о +8.0 +5.8 86 +6 +6 1013.2 951.9
08 15.07 СВ 1
{3}
11 км н/о +7.9 +6.1 88 +7 +7 1013.5 952.2
09 15.07 СВ 2
{3}
5000 м {дымка} н/о +7.4 +6.3 93 +5 +5 1013.8 952.3
10 15.07 С 1
{3}
2000 м в посл. час дождь {ливн. осадки, морось} н/о +7.1 +6.3 95 +6 +6 1014.0 952.4 0.3
11 15.07 Ю 1
{2}
23 км {ливн. осадки, морось} н/о +7.8 +6.5 91 +7 +7 1013.7 952.3
12 15.07 В 2
{3}
45 км {ливн. осадки, морось} н/о +8.5 +6.3 86 +7 +7 1013.7 952.4
13 15.07 ЮВ 1
{3}
45 км н/о +8.6 +5.5 81 +8 +8 1013.8 952.6
14 15.07 штиль 0
{2}
50 км н/о +9.2 +6.0 80 +9 +9 1013.8 952.7
15 15.07 В 1
{2}
14 км в посл. час морось н/о +7.8 +6.2 90 +7 +7 1014.2 952.8 0.2
16 15.07 Ю 1
{2}
40 км {морось, метель} н/о +8.4 +6.4 87 +8 +8 1014.2 952.9
17 15.07 Ю 1
{2}
50 км {морось, метель} н/о +8.7 +6.0 83 +8 +8 1014.1 952.9
18 15.07 штиль 0
{1}
50 км {морось, метель} н/о +8.8 +5.8 81 +8 +8 1014.2 953.0 +7.0 +9.5
19 15.07 штиль 0
{1}
45 км н/о +8.7 +5.4 80 +8 +8 1014.3 953.0
20 15.07 штиль 0
{2}
50 км н/о +8.4 +6.1 85 +8 +8 1014.5 953.2
21 15.07 З 1
{2}
50 км н/о +7.9 +5.7 86 +7 +7 1014.9 953.5
22 15.07 З 3
{4}
50 км н/о +7.6 +5.1 84 +5 +5 1015.2 953.6
23 15.07 З 1
{3}
50 км н/о +7.6 +4.8 82 +7 +7 1015.3 953.8
00 16.07 Ю 1
{2}
50 км н/о +7.0 +5.6 91 +6 +6 1015.5 953.8
01 16.07 З 1
{2}
50 км н/о +7.2 +5.1 86 +6 +6 1015.5 953.9
02 16.07 СЗ 2
{3}
50 км н/о +7.0 +5.1 88 +5 +5 1015.7 954.0
03 16.07 СЗ 1
{3}
50 км н/о +7.0 +5.2 88 +6 +6 1015.8 954.1
04 16.07 СЗ 1
{3}
50 км н/о +7.0 +4.9 86 +6 +6 1015.9 954.2
05 16.07 С 2
{3}
50 км н/о +7.2 +5.3 88 +5 +5 1015.9 954.2
06 16.07 СЗ 2
{4}
50 км н/о +7.3 +5.0 85 +5 +5 1015.9 954.3 +6.8 +8.8
07 16.07 С 4
{5}
45 км н/о +7.9 +5.5 85 +5 +5 1015.8 954.3
08 16.07 С 3
{5}
50 км н/о +8.4 +5.2 80 +6 +6 1015.6 954.2
09 16.07 СЗ 3
{5}
50 км н/о +9.1 +5.1 76 +7 +7 1015.4 954.2
10 16.07 СЗ 3
{6}
50 км н/о +9.1 +4.6 73 +7 +7 1015.5 954.3
11 16.07 СЗ 4
{6}
50 км н/о +9.1 +4.8 74 +6 +6 1015.6 954.4
12 16.07 СЗ 4
{6}
50 км н/о +9.3 +4.7 73 +7 +7 1015.6 954.5
13 16.07 СЗ 4
{8}
50 км н/о +9.7 +4.8 71 +7 +7 1015.6 954.5
14 16.07 СЗ 4
{7}
50 км н/о +9.1 +4.4 72 +6 +6 1015.9 954.7
15 16.07 СЗ 4
{6}
50 км н/о +8.8 +4.3 73 +6 +6 1016.1 954.8
16 16.07 С 2
{5}
50 км н/о +8.8 +4.3 73 +7 +7 1016.2 954.9
17 16.07 СЗ 3
{4}
50 км н/о +8.4 +4.3 75 +6 +6 1016.4 955.0
18 16.07 СЗ 2
{4}
50 км н/о +8.2 +4.6 78 +6 +6 1016.5 955.0 +9.9
19 16.07 С 2
{4}
50 км н/о +8.2 +4.8 79 +6 +6 1016.4 954.9
20 16.07 СЗ 2
{4}
40 км слаб. ливневой дождь н/о +7.6 +4.9 83 +6 +6 1016.5 954.9
21 16.07 СЗ 3
{4}
50 км в посл. час дождь {ливн. осадки} н/о +7.6 +4.8 82 +5 +5 1016.5 954.9 0.0
22 16.07 СЗ 2
{4}
50 км {ливн. осадки, дождь} н/о +7.2 +4.7 84 +5 +5 1016.6 954.9
23 16.07 СЗ 2
{4}
45 км слаб. ливневой дождь н/о +6.7 +5.0 89 +4 +4 1016.7 954.9 0.1
00 17.07 З 1
{3}
50 км в посл. час дождь {ливн. осадки} н/о +6.5 +5.3 92 +5 +5 1016.6 954.7 0.0
01 17.07 штиль 0
{2}
45 км н/о +6.6 +5.2 91 +6 +6 1016.6 954.8
02 17.07 СЗ 1
{2}
50 км н/о +6.6 +5.0 90 +5 +5 1016.4 954.5
03 17.07 СЗ 2
{3}
50 км н/о +6.7 +5.0 89 +4 +4 1016.0 954.2
04 17.07 СЗ 3
{4}
50 км н/о +6.8 +5.0 88 +4 +4 1015.9 954.1
05 17.07 СЗ 3
{4}
50 км н/о +7.1 +5.2 88 +4 +4 1015.7 954.0
06 17.07 СЗ 2
{4}
30 км н/о +7.1 +5.2 88 +5 +5 1015.4 953.8 +6.5 +8.3
07 17.07 С 1
{3}
10 км в посл. час дождь {ливн. осадки, метель} н/о +7.6 +5.5 87 +7 +7 1015.2 953.6
08 17.07 С 1
{3}
45 км {ливн. осадки, метель} н/о +8.5 +5.7 83 +8 +8 1014.8 953.5
09 17.07 СВ 2
{3}
50 км {ливн. осадки, метель} н/о +8.6 +5.7 82 +7 +7 1014.6 953.4
10 17.07 С 1
{2}
11 км в посл. час дождь {ливн. осадки, морось} н/о +8.3 +6.6 89 +7 +7 1014.8 953.4 0.1
11 17.07 С 2
{3}
30 км слаб. ливневой дождь {морось} н/о +8.8 +6.8 87 +7 +7 1014.5 953.3 0.1
12 17.07 С 2
{3}
11 км в посл. час дождь {ливн. осадки, морось} н/о +9.3 +7.5 89 +8 +8 1014.1 953.0
13 17.07 СЗ 3
{5}
35 км н/о +9.6 +6.9 83 +7 +7 1013.8 952.8
14 17.07 СЗ 3
{5}
50 км н/о +9.4 +6.8 84 +7 +7 1013.8 952.8
15 17.07 СЗ 3
{6}
50 км {дымка} н/о +9.0 +6.2 83 +7 +7 1013.8 952.7
16 17.07 СЗ 3
{5}
8000 м в посл. час дождь {ливн. осадки, метель} н/о +8.7 +7.4 92 +6 +6 1013.8 952.6
17 17.07 С 3
{4}
50 км {ливн. осадки, метель} н/о +9.5 +7.0 84 +7 +7 1013.5 952.5
18 17.07 СЗ 3
{4}
50 км {ливн. осадки, метель} н/о +9.4 +6.2 80 +7 +7 1013.4 952.4 +7.1 +10.6
19 17.07 С 2
{4}
40 км н/о +9.2 +7.0 86 +7 +7 1013.4 952.4
20 17.07 СЗ 3
{4}
50 км н/о +8.4 +6.9 90 +6 +6 1013.7 952.4
21 17.07 С 2
{4}
50 км н/о +8.0 +6.5 90 +6 +6 1013.7 952.4
22 17.07 Ю 1
{3}
50 км н/о +7.6 +6.5 93 +7 +7 1014.0 952.5
23 17.07 ЮЗ 2
{2}
35 км н/о +6.4 +5.8 96 +4 +4 1014.1 952.4
00 18.07 ЮЗ 1
{2}
35 км н/о +4.3 +3.8 97 +3 +3 1014.7 952.4
01 18.07 Ю 1
{3}
50 км н/о +5.6 +4.9 95 +4 +4 1014.4 952.5
02 18.07 СВ 1
{4}
45 км н/о +6.4 +5.8 96 +5 +5 1014.2 952.5
03 18.07
{2}
40 км н/о +6.9 +6.3 96 1014.0 952.4
04 18.07 СВ 1
{2}
50 км н/о +8.3 +6.3 87 +8 +8 1013.8 952.5
05 18.07 СВ 2
{4}
45 км н/о +8.8 +6.8 87 +7 +7 1013.6 952.5
06 18.07 В 1
{3}
50 км н/о +8.4 +6.6 88 +8 +8 1014.0 952.7 +3.4 +9.6
07 18.07 В 2
{3}
50 км н/о +10.9 +7.3 78 +10 +10 1013.3 952.6
08 18.07 В 3
{5}
45 км н/о +12.5 +7.6 72 +11 +11 1012.8 952.5
09 18.07 СВ 3
{5}
45 км н/о +13.8 +6.8 63 +13 +13 1012.4 952.5
10 18.07 С 3
{7}
40 км н/о +15.5 +6.5 55 +15 +15 1012.0 952.4
11 18.07 Ю 3
{5}
40 км н/о +16.8 +3.4 41 +17 +17 1011.9 952.6
12 18.07 Ю 3
{7}
35 км н/о +17.2 +1.3 34 +17 +17 1011.8 952.5
13 18.07 ЮЗ 3
{6}
40 км н/о +17.8 +2.7 36 +18 +18 1011.6 952.5
14 18.07 Ю 2
{8}
35 км н/о +17.7 +3.2 38 +18 +18 1011.6 952.5
15 18.07 ЮВ 4
{6}
40 км н/о +17.6 +2.5 36 +17 +17 1011.5 952.4
16 18.07 ЮВ 4
{9}
50 км н/о +16.4 +4.5 45 +16 +16 1011.9 952.5
17 18.07 В 4
{6}
45 км н/о +15.3 +5.2 51 +14 +14 1012.1 952.5
18 18.07 В 1
{6}
45 км н/о +14.5 +5.8 56 +15 +15 1012.5 952.6 +18.8
19 18.07 Ю 1
{6}
50 км н/о +15.1 +6.4 56 +16 +16 1012.4 952.7
20 18.07 Ю 2
{5}
50 км н/о +13.6 +5.8 59 +13 +13 1013.0 953.0
21 18.07 З 2
{4}
50 км н/о +12.5 +5.7 63 +12 +12 1013.4 953.1
22 18.07 СЗ 1
{3}
50 км н/о +9.7 +5.9 77 +9 +9 1014.4 953.4
23 18.07 СЗ 1
{3}
50 км н/о +8.1 +5.4 83 +7 +7 1015.0 953.6
00 19.07 ЮЗ 1
{3}
50 км н/о +6.6 +4.9 89 +6 +6 1015.3 953.5
01 19.07 Ю 1
{4}
50 км н/о +7.1 +5.1 87 +6 +6 1015.0 953.4
02 19.07 С 2
{2}
50 км н/о +10.0 +6.6 79 +9 +9 1014.3 953.3
03 19.07 СЗ 1
{2}
50 км н/о +10.6 +6.3 75 +10 +10 1014.2 953.4
04 19.07 В 1
{3}
45 км н/о +11.9 +6.7 70 +12 +12 1013.7 953.2
05 19.07 СВ 2
{4}
40 км н/о +12.1 +6.7 70 +11 +11 1013.4 953.0
06 19.07 СВ 2
{4}
45 км н/о +13.2 +7.5 68 +13 +13 1012.8 952.7 +6.4 +15.2
07 19.07 СВ 3
{5}
45 км н/о +15.1 +7.9 62 +14 +14 1012.1 952.4
08 19.07 В 5
{7}
35 км н/о +16.5 +6.3 51 +16 +16 1011.3 952.0
09 19.07 В 3
{8}
35 км н/о +18.3 +6.5 46 +19 +19 1010.5 951.6
10 19.07 ЮВ 4
{7}
45 км н/о +18.6 +4.9 40 +19 +19 1010.3 951.4
11 19.07 Ю 4
{9}
45 км н/о +18.9 +5.8 42 +19 +19 1010.2 951.4
12 19.07 ЮЗ 4
{8}
45 км н/о +20.3 +6.2 40 +21 +21 комфорт 1009.8 951.3
13 19.07 ЮЗ 5
{9}
40 км н/о +20.1 +5.8 39 +21 +21 комфорт 1009.7 951.2
14 19.07 ЮЗ 4
{8}
45 км н/о +20.1 +5.0 37 +21 +21 комфорт 1009.5 951.0
15 19.07 ЮЗ 3
{7}
45 км н/о +20.1 +5.7 39 +21 +21 комфорт 1009.5 951.0
16 19.07 ЮЗ 3
{6}
45 км н/о +20.1 +4.7 36 +21 +21 комфорт 1009.3 950.9
17 19.07 Ю 2
{5}
45 км н/о +20.0 +5.4 38 +21 +21 комфорт 1009.3 950.8
18 19.07 СЗ 2
{5}
50 км н/о +19.9 +5.9 40 +21 +21 комфорт 1009.5 950.9 +13.1 +20.8
19 19.07 ЮЗ 1
{3}
50 км н/о +15.0 +7.7 62 +16 +16 1010.9 951.2
20 19.07 З 1
{2}
50 км н/о +13.2 +7.5 68 +13 +13 1011.4 951.3
21 19.07 ЮЗ 1
{2}
50 км н/о +11.6 +7.4 75 +12 +12 1012.0 951.6
22 19.07 Ю 1
{4}
50 км н/о +12.4 +6.7 68 +13 +13 1012.1 951.8
23 19.07 Ю 3
{4}
50 км н/о +10.3 +6.2 76 +8 +8 1012.8 952.0
00 20.07 Ю 2
{3}
50 км н/о +9.2 +6.1 81 +8 +8 1013.3 952.2
01 20.07 З 1
{2}
50 км н/о +8.3 +6.4 88 +7 +7 1013.6 952.3
02 20.07 ЮЗ 1
{2}
50 км н/о +10.2 +7.7 84 +10 +10 1013.0 952.2
03 20.07 СВ 1 45 км н/о +11.9 +8.0 77 +12 +12 1013.0 952.5
04 20.07 СВ 1
{2}
45 км н/о +13.0 +8.7 75 +13 +13 1012.8 952.6
05 20.07 С 1
{2}
40 км н/о +13.5 +8.3 71 +14 +14 1012.6 952.6
06 20.07 СВ 1
{2}
45 км н/о +15.0 +8.9 67 +16 +16 1012.3 952.6 +8.2 +20.0
07 20.07 СЗ 1
{3}
45 км н/о +16.8 +8.8 59 +18 +18 1012.2 952.9
08 20.07 СВ 2
{3}
40 км н/о +17.7 +9.1 57 +18 +18 1012.2 953.0
09 20.07 СВ 2
{3}
50 км н/о +18.6 +9.0 54 +20 +20 1012.0 953.1
10 20.07 СЗ 2
{5}
40 км н/о +20.5 +9.9 51 +23 +23 комфорт 1011.7 953.1
11 20.07 СЗ 3
{6}
30 км н/о +20.5 +8.4 46 +22 +22 комфорт 1011.9 953.4
12 20.07 СЗ 3
{8}
45 км н/о +19.7 +9.5 52 +21 +21 комфорт 1012.3 953.5
13 20.07 СЗ 4
{7}
40 км н/о +19.9 +10.2 54 +21 +21 комфорт 1012.2 953.5
14 20.07 СЗ 3
{6}
50 км н/о +19.2 +10.0 55 +20 +20 1012.2 953.3
15 20.07 СЗ 3
{5}
45 км н/о +19.3 +10.0 55 +20 +20 1012.3 953.5
16 20.07 СЗ 3
{6}
45 км н/о +21.0 +10.1 50 +23 +23 комфорт 1011.9 953.5
17 20.07 СЗ 3
{5}
50 км н/о +18.8 +10.6 59 +20 +20 1012.4 953.4
18 20.07 ЮЗ 8
{14}
9000 м ливневой дождь н/о +13.8 +11.1 84 +11 +11 1014.2 954.1 +13.6 +21.3 1
19 20.07 СВ 2
{10}
17 км ливневой дождь н/о +13.6 +11.5 87 +13 +13 1014.5 954.3 5
20 20.07 ЮВ 1
{6}
50 км в посл. час дождь {ливн. осадки, метель} н/о +13.5 +11.2 86 +14 +14 1014.4 954.2
21 20.07 ЮЗ 2
{3}
50 км {ливн. осадки, метель} н/о +12.2 +10.6 90 +11 +11 1014.4 953.9
22 20.07 ЮЗ 1
{3}
50 км {ливн. осадки, метель} н/о +12.6 +11.1 91 +13 +13 1014.3 954.0
23 20.07 Ю 1
{2}
45 км {ливн. осадки, метель} н/о +10.6 +9.9 95 +10 +10 1014.8 953.9
00 21.07 Ю 2
{3}
50 км {ливн. осадки, метель} н/о +9.9 +9.1 95 +8 +8 1014.7 953.8
01 21.07
{3}
50 км н/о +11.3 +10.6 95 1014.1 953.5
02 21.07 СЗ 1
{3}
40 км н/о +11.5 +10.7 95 +11 +11 1013.9 953.3
03 21.07 З 1
{2}
28 км н/о +11.4 +10.8 96 +11 +11 1014.0 953.4
04 21.07 СВ 1
{2}
40 км н/о +12.5 +11.1 91 +12 +12 1013.7 953.3
05 21.07 СВ 1 35 км н/о +13.7 +11.9 89 +14 +14 1013.2 953.2
06 21.07
{4}
35 км н/о +13.4 +11.8 90 1013.2 953.1 +9.0 +14.3
07 21.07 В 2
{4}
45 км н/о +15.5 +11.7 78 +15 +15 1012.6 953.0
08 21.07 СВ 2
{4}
35 км н/о +16.8 +13.0 78 +17 +17 1012.1 952.7
09 21.07 СВ 3
{4}
50 км н/о +17.7 +12.3 71 +18 +18 1011.8 952.7
10 21.07 СВ 3
{4}
45 км н/о +18.8 +13.0 69 +20 +20 1011.6 952.7
11 21.07 СВ 2
{4}
40 км н/о +19.7 +13.3 67 +22 +22 комфорт 1011.2 952.5

 

Местоположение метеостанции Каттерьяк аэропорт (Швеция): широта 68.42 долгота 18.17 высота над уровнем моря 516 м.

В архиве по умолчанию представлена погода в Каттерьяк аэропорту за последнюю неделю. Архивные данные за месяц целиком и за предыдущие месяцы, начиная с января 2011 года, Вы можете получить, выбрав интересующий диапазон дат из раскрывающегося списка и нажав кнопку "Ввод!".


*Определитесь, кто Вы:
робот инопланетянин человек

Внимание! Время в таблицах - всемирное. Для получения местного времени необходимо прибавить поправку, которая равна 1 ч.

Смотрите также архив погоды в соседних городах и на ближайших метеорологических станциях:

Погода в Страумснесе (Норвегия) (21 км)
Погода в Абиску (Швеция) (28 км)
Погода в Лосистуа (Норвегия) (30 км)
Погода в Нарвике (Норвегия) (32 км)
Погода на Тарфале (Швеция) (58 км)
Погода в Аэропорту Харстад/Нарвик (Норвегия) (61 км)
Погода в Никкалуокте (Швеция) (73 км)
Погода в Бардуфоссе (Норвегия) (73 км)
Погода в Дивидалене (Норвегия) (74 км)
Погода в Ренсьоне (Швеция) (79 км)

Пояснения к столбцам:

Ветер - указаны скорость ветра в м/с - средняя за 10 мин, порывы в срок и между сроками (в фигурных скобках) и направление, откуда дует ветер: С - северный, СВ - северо-восточный, В - восточный, ЮВ - юго-восточный, Ю - южный, ЮЗ - юго-западный, З - западный, СЗ - северо-западный.
Видимость - горизонтальная дальность видимости в метрах или километрах. При видимости от 1 до 10 км при отсутствии осадков обычно наблюдается дымка, при ухудшении видимости до 1 км и менее - туман. В сухую погоду видимость может ухудшаться дымом, пылью или мглою.
Явления - указаны атмосферные явления, наблюдавшиеся в срок или в последний час перед сроком; фигурными скобками обозначены явления, наблюдавшиеся между сроками (за 1-3 часа до срока); квадратными скобками обозначены град или гололедные отложения с указанием их диаметра в мм.
Облачность - указаны через наклонную черту общая и нижняя облачность в баллах и высота нижней границы облаков в метрах; квадратными скобками обозначены формы облаков: Ci - перистые, Cs - перисто-слоистые, Cc - перисто-кучевые, Ac - высококучевые, As - высокослоистые, Sc - слоисто-кучевые, Ns - слоисто-дождевые, Cu - кучевые, Cb - кучево-дождевые. Подробнее классификацию облаков см. в Атласе облаков (PDF).
T - Температура воздуха - температура, измеренная на высоте 2 м над землей.
Td - Температура точки росы - температура, при понижении до которой содержащийся в воздухе водяной пар достигнет насыщения.
f - Относительная влажность воздуха - влажноcть воздуха, измеренная на высоте 2 м над землей.
Te - Эффективная температура - температура, которую ощущает одетый по сезону человек в тени. Характеристика душности погоды. При расчете учитывается влияние влажности воздуха и скорости ветра на теплоощущения человека.
Tes - Эффективная температура на солнце - температура, которую ощущает человек, с поправкой на солнечный нагрев. Характеристика знойности погоды. Зависит от высоты солнца над горизонтом, облачности и скорости ветра. Ночью, в пасмурную погоду, а также при ветре 12 м/с и более поправка равна нулю.
P - Атмосферное давление - приведенное к уровню моря атмосферное давление.
Po - Атмосферное давление - измеренное на уровне метеостанции атмосферное давление.
Tmin - Минимальная температура - минимум температуры воздуха на высоте 2 м над землей.
Tmax - Максимальная температура - максимум температуры воздуха на высоте 2 м над землей.
R - Количество осадков - Количество выпавших осадков за период времени, мм. При наведении курсора мыши на число - период времени, за который выпало указанное количество осадков.
R24 - Количество осадков - Количество выпавших осадков за 24 часа, мм.
S - Снежный покров - Высота снежного покрова, см. При наведении курсора мыши на число - состояние снежного покрова и степень покрытия местности в баллах.